This demonstration page uses our WeatherBlox Daily Observations layout. Learn more.

Left ArrowRight Arrow

39.92423, -83.80882

Hourly Observations for February 22, 2016

Temp ( °F °C ) Dew Point ( °F °C ) Humidity (%) Winds ( mph kmh ) Pressure ( in mb ) Visibility ( mi km ) Precip ( " mm )
12:56 am 00:56 Clear 31 -0.5 30 -1.1 96 96 NE 8 13 30.11 1020 10 16 N/A
1:56 am 01:56 Clear 30 -1.1 29 -1.6 96 96 NE 6 9 30.11 1020 10 16 N/A
2:56 am 02:56 Clear 28 -2.2 28 -2.2 100 100 NE 7 11 30.12 1020 10 16 N/A
3:56 am 03:56 Clear 29 -1.6 28 -2.2 96 96 NNE 6 9 30.14 1021 10 16 N/A
4:56 am 04:56 Clear 30 -1.1 29 -1.6 96 96 NE 9 15 30.14 1021 10 16 N/A
5:56 am 05:56 Clear 28 -2.2 28 -2.2 100 100 NNE 7 11 30.16 1021 10 16 N/A
6:56 am 06:56 Clear 28 -2.2 28 -2.2 100 100 N 3 6 30.17 1022 10 16 N/A
7:56 am 07:56 Sunny 28 -2.2 28 -2.2 100 100 NE 5 7 30.18 1022 10 16 N/A
8:56 am 08:56 Sunny 33 0.5 31 -0.5 93 93 NE 7 11 30.17 1022 10 16 N/A
9:56 am 09:56 Sunny 38 3.3 32 undefined 79 79 E 12 19 30.17 1022 10 16 N/A
10:56 am 10:56 Sunny 42 5.5 32 undefined 68 68 ENE 8 13 30.16 1021 10 16 N/A
11:56 am 11:56 Mostly Sunny 46 7.7 32 undefined 59 59 E 8 13 30.15 1021 10 16 N/A
12:56 pm 12:56 Partly Cloudy 48 8.8 33 0.5 56 56 VRB 6 9 30.14 1021 10 16 N/A
1:22 pm 13:22 Mostly Cloudy 48 9 32 undefined 54 54 NE 8 13 30.15 1021 10 16 N/A
1:30 pm 13:30 Partly Cloudy 48 9 32 undefined 54 54 NE 8 13 30.12 1020 10 16 N/A
1:56 pm 13:56 Sunny 49 9.4 33 0.5 54 54 ENE 8 13 30.10 1019 10 16 N/A
2:56 pm 14:56 Sunny 50 10 33 0.5 52 52 ENE 8 13 30.10 1019 10 16 N/A
3:56 pm 15:56 Sunny 49 9.4 32 undefined 52 52 NE 8 13 30.10 1019 10 16 N/A
4:56 pm 16:56 Sunny 47 8.3 33 0.5 58 58 ENE 8 13 30.10 1019 10 16 N/A
5:56 pm 17:56 Sunny 42 5.5 32 undefined 68 68 NE 9 15 30.10 1019 10 16 N/A
6:56 pm 18:56 Clear 38 3.3 32 undefined 79 79 NNE 8 13 30.11 1020 10 16 N/A
7:56 pm 19:56 Clear 38 3.3 32 undefined 79 79 NNE 8 13 30.11 1020 10 16 N/A
8:56 pm 20:56 Clear 37 2.7 30 -1.1 76 76 NNE 12 19 30.11 1020 10 16 N/A
9:56 pm 21:56 Clear 34 1.1 30 -1.1 85 85 NNE 9 15 30.11 1020 10 16 N/A
10:56 pm 22:56 Clear 32 undefined 29 -1.6 89 89 NNE 8 13 30.11 1020 10 16 N/A
11:56 pm 23:56 Clear 31 -0.5 28 -2.2 88 88 NE 9 15 30.09 1019 10 16 N/A

Powered by AerisWeather